MZT5219 ZGHA-ZYTX

Flight info

Callsign MZT5219
Flight time 2h 12m
Altitude 44900
Route GUDRO W56 LEBUN/K0922S1310 W56 NUDKU/K0922S1370 W56 VYK W34 OTBUL W35 CHG A575 OMDUS OMD74A
Aircraft GLF6/M-SBDE2E3FGHIJ4J5M1RWXY/LB1D1

Departure

Time 2026-04-17 06:40
Airport Changsha Huanghua International Airport (ZGHA)

Arrival

Time 2026-04-17 08:53
Airport Shenyang Taoxian International Airport (ZYTX)
Time Latitude Longitude Altitude Speed Heading
2026-04-17 06:14 28.18505 113.21574 227 ft 0 kts 176°
2026-04-17 06:28 28.18504 113.21574 225 ft 0 kts 176°
2026-04-17 06:32 28.18511 113.21574 227 ft 2 kts 175°
2026-04-17 06:32 28.18526 113.21573 227 ft 2 kts 176°
2026-04-17 06:32 28.18541 113.21572 227 ft 2 kts 176°
2026-04-17 06:33 28.18551 113.21571 227 ft 1 kts 176°
2026-04-17 06:33 28.18564 113.21568 227 ft 2 kts 146°
2026-04-17 06:33 28.18575 113.21556 227 ft 2 kts 115°
2026-04-17 06:33 28.18578 113.21542 227 ft 1 kts 87°
2026-04-17 06:34 28.18578 113.21539 227 ft 0 kts 86°
2026-04-17 06:35 28.18579 113.21569 227 ft 11 kts 88°
2026-04-17 06:35 28.18582 113.21655 227 ft 11 kts 87°
2026-04-17 06:35 28.18585 113.21770 227 ft 14 kts 93°
2026-04-17 06:36 28.18507 113.21814 227 ft 20 kts 177°
2026-04-17 06:36 28.18325 113.21825 227 ft 26 kts 177°
2026-04-17 06:36 28.18149 113.21836 227 ft 24 kts 176°
2026-04-17 06:36 28.17984 113.21846 227 ft 22 kts 176°
2026-04-17 06:37 28.17831 113.21856 227 ft 21 kts 177°
2026-04-17 06:37 28.17741 113.21931 227 ft 8 kts 81°
2026-04-17 06:37 28.17741 113.21938 227 ft 0 kts 86°
2026-04-17 06:38 28.17741 113.21941 227 ft 0 kts 84°
2026-04-17 06:38 28.17741 113.21943 227 ft 0 kts 85°
2026-04-17 06:38 28.17751 113.22008 227 ft 13 kts 65°
2026-04-17 06:38 28.17826 113.22044 227 ft 1 kts 354°
2026-04-17 06:39 28.17839 113.22043 227 ft 2 kts 354°
2026-04-17 06:39 28.17850 113.22042 227 ft 0 kts 354°
2026-04-17 06:39 28.17857 113.22041 227 ft 2 kts 354°
2026-04-17 06:39 28.17865 113.22041 227 ft 1 kts 354°
2026-04-17 06:40 28.17894 113.22038 227 ft 16 kts 356°
2026-04-17 06:40 28.18389 113.22025 227 ft 121 kts 354°
2026-04-17 06:40 28.19419 113.21928 694 ft 160 kts 354°
2026-04-17 06:40 28.20428 113.21852 1612 ft 141 kts 356°
2026-04-17 06:41 28.21612 113.21844 1806 ft 196 kts 359°
2026-04-17 06:41 28.23157 113.21841 2051 ft 242 kts
2026-04-17 06:41 28.24867 113.21840 3222 ft 253 kts
2026-04-17 06:41 28.26606 113.21841 4482 ft 260 kts
2026-04-17 06:42 28.28404 113.21841 5848 ft 264 kts
2026-04-17 06:42 28.30238 113.21841 7047 ft 273 kts 360°
2026-04-17 06:42 28.32121 113.21843 8309 ft 279 kts 359°
2026-04-17 06:42 28.34075 113.21845 9552 ft 286 kts 359°
2026-04-17 06:43 28.36041 113.22004 10686 ft 296 kts 14°
2026-04-17 06:43 28.37973 113.23173 11047 ft 336 kts 43°
2026-04-17 06:43 28.39216 113.25391 12277 ft 342 kts 64°
2026-04-17 06:43 28.40040 113.27947 13170 ft 356 kts 73°
2026-04-17 06:44 28.40689 113.30647 14354 ft 362 kts 76°
2026-04-17 06:44 28.41268 113.33466 15383 ft 374 kts 78°
2026-04-17 06:44 28.42139 113.36240 16428 ft 382 kts 58°
2026-04-17 06:44 28.43943 113.38419 17419 ft 390 kts 34°
2026-04-17 06:45 28.46359 113.39861 18488 ft 394 kts 20°
2026-04-17 06:45 28.48925 113.40949 19519 ft 402 kts 15°
2026-04-17 06:45 28.51605 113.41924 20840 ft 402 kts 12°
2026-04-17 06:45 28.54253 113.42819 22178 ft 400 kts 11°
2026-04-17 06:46 28.56896 113.43686 23490 ft 399 kts 10°
2026-04-17 06:46 28.59577 113.44553 24616 ft 403 kts
2026-04-17 06:46 28.62347 113.45438 24767 ft 435 kts
2026-04-17 06:46 28.65367 113.46407 24817 ft 468 kts 10°
2026-04-17 06:47 28.68614 113.47454 24882 ft 497 kts 11°
2026-04-17 06:47 28.71942 113.48532 25615 ft 506 kts 10°
2026-04-17 06:47 28.75381 113.49639 26481 ft 510 kts
2026-04-17 06:47 28.78818 113.50229 27517 ft 500 kts 358°
2026-04-17 06:48 28.82312 113.50487 28426 ft 502 kts 357°
2026-04-17 06:48 28.85753 113.50732 29446 ft 502 kts 356°
2026-04-17 06:48 28.89225 113.50983 30584 ft 498 kts 356°
2026-04-17 06:48 28.92672 113.51231 31747 ft 494 kts 356°
2026-04-17 06:49 28.96103 113.51475 32517 ft 498 kts 355°
2026-04-17 06:49 28.99601 113.51721 32526 ft 517 kts 356°
2026-04-17 06:49 29.03268 113.51987 32970 ft 525 kts 356°
2026-04-17 06:49 29.06907 113.52254 33644 ft 527 kts 356°
2026-04-17 06:50 29.10556 113.52516 34218 ft 532 kts 355°
2026-04-17 06:50 29.14251 113.52787 35216 ft 526 kts 355°
2026-04-17 06:50 29.17920 113.53050 35712 ft 531 kts 355°
2026-04-17 06:50 29.21591 113.53317 36469 ft 528 kts 354°
2026-04-17 06:51 29.25245 113.53581 37090 ft 528 kts 354°
2026-04-17 06:51 29.28946 113.53854 37650 ft 531 kts 354°
2026-04-17 06:51 29.32603 113.54172 38266 ft 532 kts 354°
2026-04-17 06:51 29.36282 113.54489 38947 ft 531 kts 354°
2026-04-17 06:52 29.40028 113.54812 39468 ft 534 kts 354°
2026-04-17 06:52 29.43696 113.55134 40532 ft 525 kts 354°
2026-04-17 06:52 29.47358 113.55448 41114 ft 526 kts 354°
2026-04-17 06:52 29.50958 113.55762 41842 ft 522 kts 354°
2026-04-17 06:53 29.54575 113.56077 42507 ft 518 kts 354°
2026-04-17 06:53 29.58169 113.56387 43073 ft 518 kts 354°
2026-04-17 06:53 29.61751 113.56698 43673 ft 516 kts 354°
2026-04-17 06:53 29.65312 113.57009 44326 ft 512 kts 354°
2026-04-17 06:54 29.68844 113.57317 44857 ft 508 kts 354°
2026-04-17 06:54 29.75920 113.57928 44861 ft 518 kts 354°
2026-04-17 06:55 29.81810 113.58443 44873 ft 527 kts 354°
2026-04-17 06:55 29.89152 113.59087 44875 ft 530 kts 354°
2026-04-17 06:56 29.96483 113.60561 44904 ft 552 kts 13°
2026-04-17 06:56 30.03628 113.64092 44867 ft 561 kts 15°
2026-04-17 06:57 30.10821 113.67681 44849 ft 562 kts 15°
2026-04-17 06:57 30.18016 113.71276 44847 ft 561 kts 15°
2026-04-17 06:58 30.25215 113.74876 44849 ft 561 kts 15°
2026-04-17 06:58 30.32380 113.78467 44859 ft 561 kts 15°
2026-04-17 06:59 30.39565 113.82074 44828 ft 562 kts 15°
2026-04-17 06:59 30.46733 113.85678 44834 ft 562 kts 15°
2026-04-17 07:00 30.53955 113.89314 44858 ft 562 kts 15°
2026-04-17 07:00 30.61152 113.92945 44858 ft 563 kts 15°
2026-04-17 07:01 30.68369 113.96464 44901 ft 560 kts 14°
2026-04-17 07:01 30.75465 114.00316 44904 ft 565 kts 18°
2026-04-17 07:02 30.82577 114.04215 44899 ft 565 kts 17°
2026-04-17 07:02 30.89701 114.08072 44876 ft 567 kts 17°
2026-04-17 07:03 30.96820 114.11934 44879 ft 567 kts 17°
2026-04-17 07:03 31.03993 114.15831 44874 ft 567 kts 17°
2026-04-17 07:04 31.11107 114.19698 44859 ft 566 kts 17°
2026-04-17 07:04 31.18284 114.23606 44861 ft 566 kts 17°
2026-04-17 07:05 31.25214 114.27384 44860 ft 567 kts 17°
2026-04-17 07:05 31.32339 114.31278 44865 ft 566 kts 17°
2026-04-17 07:05 31.35964 114.32797 44846 ft 544 kts
2026-04-17 07:06 31.39661 114.33234 44908 ft 528 kts 352°
2026-04-17 07:06 31.47044 114.33495 44860 ft 529 kts 352°
2026-04-17 07:07 31.54409 114.33713 44866 ft 530 kts 352°
2026-04-17 07:07 31.61769 114.33932 44873 ft 531 kts 352°
2026-04-17 07:08 31.69113 114.34156 45439 ft 509 kts 352°
2026-04-17 07:08 31.72607 114.34264 45537 ft 491 kts 351°
2026-04-17 07:08 31.75958 114.34362 45663 ft 482 kts 351°
2026-04-17 07:08 31.79351 114.34460 45816 ft 484 kts 351°
2026-04-17 07:09 31.82673 114.34560 46401 ft 479 kts 352°
2026-04-17 07:09 31.86005 114.34662 46910 ft 476 kts 352°
2026-04-17 07:09 31.89341 114.34759 47090 ft 479 kts 352°
2026-04-17 07:09 31.92653 114.34862 47639 ft 475 kts 352°
2026-04-17 07:10 31.95984 114.34958 47663 ft 483 kts 352°
2026-04-17 07:10 32.02784 114.35164 47738 ft 496 kts 353°
2026-04-17 07:10 32.06256 114.35269 47886 ft 498 kts 353°
2026-04-17 07:11 32.09738 114.35376 48024 ft 501 kts 353°
2026-04-17 07:11 32.13191 114.35481 48256 ft 500 kts 353°
2026-04-17 07:11 32.16680 114.35587 48521 ft 499 kts 353°
2026-04-17 07:11 32.20158 114.35693 48748 ft 499 kts 353°
2026-04-17 07:12 32.23608 114.35798 48843 ft 500 kts 353°
2026-04-17 07:12 32.30616 114.36301 48853 ft 512 kts 356°
2026-04-17 07:13 32.37780 114.36962 48747 ft 512 kts 356°
2026-04-17 07:13 32.41255 114.37285 48905 ft 499 kts 356°
2026-04-17 07:13 32.44695 114.37598 48851 ft 491 kts 356°
2026-04-17 07:13 32.48091 114.37908 48651 ft 488 kts 356°
2026-04-17 07:14 32.51485 114.38213 46177 ft 510 kts 355°
2026-04-17 07:14 32.55038 114.38541 44837 ft 511 kts 355°
2026-04-17 07:14 32.58577 114.38867 44844 ft 504 kts 355°
2026-04-17 07:15 32.65456 114.39497 44840 ft 491 kts 355°
2026-04-17 07:15 32.72240 114.40129 44839 ft 483 kts 355°
2026-04-17 07:16 32.78949 114.40750 44184 ft 490 kts 355°
2026-04-17 07:16 32.82396 114.41069 43626 ft 497 kts 356°
2026-04-17 07:16 32.85892 114.41391 41906 ft 523 kts 356°
2026-04-17 07:16 32.89492 114.41730 41095 ft 526 kts 356°
2026-04-17 07:17 32.93132 114.42076 41174 ft 524 kts 356°
2026-04-17 07:17 33.03995 114.43092 42801 ft 516 kts 356°
2026-04-17 07:18 33.07610 114.43429 42995 ft 521 kts 356°
2026-04-17 07:18 33.11214 114.43770 43542 ft 519 kts 356°
2026-04-17 07:18 33.14768 114.44102 43981 ft 519 kts 356°
2026-04-17 07:18 33.18378 114.44443 44463 ft 517 kts 356°
2026-04-17 07:19 33.21932 114.44778 44911 ft 515 kts 356°
2026-04-17 07:19 33.25548 114.45114 44813 ft 523 kts 356°
2026-04-17 07:19 33.32760 114.45796 44856 ft 517 kts 356°
2026-04-17 07:20 33.39923 114.46469 44862 ft 514 kts 356°
2026-04-17 07:20 33.47002 114.47136 44859 ft 511 kts 356°
2026-04-17 07:21 33.54069 114.47803 44858 ft 509 kts 356°
2026-04-17 07:21 33.61135 114.48469 44853 ft 509 kts 356°
2026-04-17 07:22 33.68173 114.49126 44865 ft 511 kts 356°
2026-04-17 07:22 33.75275 114.49792 44866 ft 512 kts 356°
2026-04-17 07:23 33.82384 114.50460 44856 ft 510 kts 356°
2026-04-17 07:23 33.89422 114.51122 44860 ft 510 kts 356°
2026-04-17 07:24 33.96486 114.51788 44853 ft 510 kts 356°
2026-04-17 07:24 34.03577 114.52457 44857 ft 510 kts 356°
2026-04-17 07:25 34.10630 114.53126 44868 ft 509 kts 356°
2026-04-17 07:25 34.17693 114.53795 44835 ft 510 kts 356°
2026-04-17 07:26 34.24732 114.54461 44855 ft 508 kts 357°
2026-04-17 07:26 34.31735 114.55128 44854 ft 507 kts 356°
2026-04-17 07:27 34.38782 114.55800 44857 ft 510 kts 356°
2026-04-17 07:27 34.45842 114.56473 44850 ft 507 kts 356°
2026-04-17 07:28 34.52903 114.57142 44856 ft 507 kts 356°
2026-04-17 07:28 34.59889 114.57806 44848 ft 506 kts 356°
2026-04-17 07:29 34.66911 114.58471 44854 ft 507 kts 356°
2026-04-17 07:29 34.73945 114.59140 44857 ft 507 kts 356°
2026-04-17 07:30 34.80919 114.59806 44871 ft 505 kts 356°
2026-04-17 07:30 34.87928 114.60473 44858 ft 507 kts 356°
2026-04-17 07:31 34.94973 114.61147 44856 ft 507 kts 356°
2026-04-17 07:31 35.01981 114.61820 44848 ft 508 kts 356°
2026-04-17 07:32 35.09006 114.62495 44844 ft 506 kts 356°
2026-04-17 07:32 35.16008 114.63168 44845 ft 505 kts 356°
2026-04-17 07:33 35.22983 114.63839 44835 ft 504 kts 356°
2026-04-17 07:33 35.30008 114.64516 44841 ft 505 kts 357°
2026-04-17 07:34 35.36995 114.65193 44821 ft 505 kts 357°
2026-04-17 07:34 35.44026 114.65874 44810 ft 503 kts 357°
2026-04-17 07:35 35.51015 114.66551 44818 ft 503 kts 357°
2026-04-17 07:35 35.57992 114.67229 44817 ft 503 kts 357°
2026-04-17 07:36 35.65073 114.67914 44816 ft 518 kts 358°
2026-04-17 07:36 35.72350 114.68625 44816 ft 528 kts 358°
2026-04-17 07:37 35.79689 114.69344 44813 ft 531 kts 358°
2026-04-17 07:37 36.11492 114.72460 44810 ft 530 kts 358°
2026-04-17 07:38 36.18864 114.73185 44817 ft 531 kts 358°
2026-04-17 07:38 36.26205 114.73904 44814 ft 530 kts 358°
2026-04-17 07:39 36.33581 114.74641 44814 ft 528 kts 358°
2026-04-17 07:39 36.37201 114.75238 44778 ft 536 kts
2026-04-17 07:39 36.40687 114.76910 44855 ft 546 kts 19°
2026-04-17 07:40 36.47603 114.80904 44805 ft 549 kts 19°
2026-04-17 07:40 36.54496 114.84897 44800 ft 549 kts 19°
2026-04-17 07:41 36.61462 114.88940 44787 ft 550 kts 19°
2026-04-17 07:41 36.68342 114.92939 44803 ft 548 kts 19°
2026-04-17 07:42 36.75214 114.96942 44808 ft 548 kts 19°
2026-04-17 07:42 36.82101 115.00963 44817 ft 547 kts 19°
2026-04-17 07:43 36.88996 115.04997 44812 ft 545 kts 19°
2026-04-17 07:43 36.95839 115.09008 44803 ft 544 kts 19°
2026-04-17 07:44 37.02676 115.13021 44815 ft 544 kts 19°
2026-04-17 07:44 37.09508 115.17042 44806 ft 544 kts 19°
2026-04-17 07:45 37.16365 115.21085 44807 ft 546 kts 19°
2026-04-17 07:45 37.23206 115.25126 44807 ft 544 kts 19°
2026-04-17 07:46 37.30087 115.29200 44786 ft 543 kts 19°
2026-04-17 07:46 37.36905 115.33244 44800 ft 544 kts 19°
2026-04-17 07:47 37.43761 115.37321 44807 ft 544 kts 19°
2026-04-17 07:47 37.50569 115.41374 44786 ft 543 kts 19°
2026-04-17 07:48 37.57386 115.45443 44788 ft 543 kts 19°
2026-04-17 07:48 37.64226 115.49532 44795 ft 544 kts 19°
2026-04-17 07:49 37.71014 115.53600 44808 ft 544 kts 19°
2026-04-17 07:49 37.77879 115.57637 44772 ft 538 kts 13°
2026-04-17 07:50 37.81470 115.58554 44843 ft 517 kts 355°
2026-04-17 07:50 37.85033 115.58469 44815 ft 513 kts 350°
2026-04-17 07:50 37.92153 115.57977 44790 ft 513 kts 349°
2026-04-17 07:51 37.99293 115.57451 44799 ft 514 kts 349°
2026-04-17 07:51 38.06443 115.56922 44792 ft 512 kts 349°
2026-04-17 07:52 38.13518 115.56526 44793 ft 512 kts 349°
2026-04-17 07:52 38.20653 115.56020 44792 ft 512 kts 349°
2026-04-17 07:53 38.27808 115.56440 44806 ft 530 kts 11°
2026-04-17 07:53 38.31247 115.58308 44806 ft 541 kts 20°
2026-04-17 07:53 38.34623 115.60442 44770 ft 543 kts 20°
2026-04-17 07:54 38.41383 115.64698 44767 ft 543 kts 20°
2026-04-17 07:54 38.48171 115.68978 44754 ft 543 kts 21°
2026-04-17 07:55 38.54917 115.73240 44756 ft 541 kts 20°
2026-04-17 07:55 38.61669 115.77512 44789 ft 542 kts 21°
2026-04-17 07:56 38.67930 115.82902 44823 ft 555 kts 42°
2026-04-17 07:56 38.73119 115.90247 44793 ft 560 kts 44°
2026-04-17 07:57 38.78315 115.97669 44757 ft 559 kts 44°
2026-04-17 07:57 38.83498 116.05093 44758 ft 559 kts 44°
2026-04-17 07:58 38.88663 116.12509 44767 ft 561 kts 44°
2026-04-17 07:58 38.93827 116.19942 44772 ft 559 kts 44°
2026-04-17 07:59 38.98972 116.27364 44772 ft 557 kts 44°
2026-04-17 07:59 39.04098 116.34776 44761 ft 557 kts 44°
2026-04-17 08:00 39.09198 116.42166 44761 ft 555 kts 44°
2026-04-17 08:00 39.14298 116.49579 44766 ft 555 kts 44°
2026-04-17 08:01 39.16671 116.53582 44764 ft 563 kts 57°
2026-04-17 08:01 39.18086 116.58279 44800 ft 567 kts 76°
2026-04-17 08:01 39.18504 116.63303 44826 ft 568 kts 92°
2026-04-17 08:01 39.17888 116.68312 44779 ft 567 kts 105°
2026-04-17 08:02 39.16237 116.78249 44756 ft 570 kts 103°
2026-04-17 08:02 39.14675 116.88207 44751 ft 572 kts 103°
2026-04-17 08:03 39.13099 116.98228 44759 ft 572 kts 103°
2026-04-17 08:03 39.11738 117.08342 44794 ft 572 kts 101°
2026-04-17 08:04 39.10401 117.18420 44812 ft 572 kts 101°
2026-04-17 08:04 39.09061 117.28442 44822 ft 572 kts 101°
2026-04-17 08:05 39.07859 117.38499 44790 ft 571 kts 93°
2026-04-17 08:05 39.07742 117.48721 44826 ft 573 kts 90°
2026-04-17 08:06 39.07629 117.58956 44833 ft 574 kts 91°
2026-04-17 08:06 39.07506 117.69207 44817 ft 575 kts 92°
2026-04-17 08:07 39.07372 117.79483 44798 ft 574 kts 92°
2026-04-17 08:07 39.07231 117.89735 44793 ft 575 kts 91°
2026-04-17 08:08 39.08343 117.99831 44876 ft 570 kts 68°
2026-04-17 08:08 39.09902 118.04496 44768 ft 568 kts 57°
2026-04-17 08:08 39.12268 118.08440 44855 ft 557 kts 39°
2026-04-17 08:09 39.18260 118.14651 44779 ft 553 kts 33°
2026-04-17 08:09 39.24293 118.20843 44800 ft 557 kts 34°
2026-04-17 08:10 39.30309 118.27042 44797 ft 554 kts 33°
2026-04-17 08:10 39.36300 118.33227 44794 ft 554 kts 33°
2026-04-17 08:11 39.42283 118.39420 44806 ft 551 kts 33°
2026-04-17 08:11 39.48217 118.45575 44799 ft 552 kts 33°
2026-04-17 08:12 39.54200 118.51794 44813 ft 552 kts 34°
2026-04-17 08:12 39.60156 118.58002 44811 ft 551 kts 34°
2026-04-17 08:13 39.66102 118.64211 44797 ft 549 kts 34°
2026-04-17 08:14 39.75007 118.73472 44780 ft 546 kts 32°
2026-04-17 08:14 39.81186 118.79232 44796 ft 547 kts 31°
2026-04-17 08:15 39.87324 118.84989 44786 ft 545 kts 31°
2026-04-17 08:15 39.93450 118.90750 44774 ft 545 kts 31°
2026-04-17 08:16 39.99560 118.96510 44771 ft 544 kts 31°
2026-04-17 08:16 40.05677 119.02290 44767 ft 542 kts 31°
2026-04-17 08:17 40.11768 119.08056 44794 ft 543 kts 31°
2026-04-17 08:17 40.17878 119.13855 44800 ft 543 kts 31°
2026-04-17 08:18 40.23980 119.19624 44800 ft 543 kts 31°
2026-04-17 08:18 40.30134 119.25355 44809 ft 544 kts 30°
2026-04-17 08:19 40.36308 119.31121 44826 ft 545 kts 30°
2026-04-17 08:19 40.42447 119.36867 44817 ft 545 kts 30°
2026-04-17 08:20 40.48606 119.42647 44785 ft 545 kts 30°
2026-04-17 08:20 40.54769 119.48441 44794 ft 545 kts 30°
2026-04-17 08:21 40.60922 119.54241 44835 ft 546 kts 30°
2026-04-17 08:21 40.67084 119.60061 44788 ft 546 kts 30°
2026-04-17 08:22 40.73241 119.65892 44785 ft 545 kts 31°
2026-04-17 08:22 40.79400 119.71736 44739 ft 547 kts 31°
2026-04-17 08:23 40.85574 119.77612 44792 ft 548 kts 31°
2026-04-17 08:23 40.91770 119.83521 44736 ft 547 kts 31°
2026-04-17 08:24 41.04033 119.95253 44751 ft 548 kts 31°
2026-04-17 08:25 41.10230 120.01206 44776 ft 547 kts 31°
2026-04-17 08:25 41.16405 120.07153 44741 ft 548 kts 31°
2026-04-17 08:26 41.22555 120.13086 44780 ft 547 kts 31°
2026-04-17 08:26 41.28742 120.19070 44779 ft 549 kts 31°
2026-04-17 08:27 41.34890 120.25030 44751 ft 545 kts 31°
2026-04-17 08:27 41.40999 120.30967 44751 ft 547 kts 31°
2026-04-17 08:28 41.47142 120.36950 44755 ft 547 kts 31°
2026-04-17 08:28 41.52441 120.44258 44793 ft 560 kts 59°
2026-04-17 08:28 41.53850 120.49113 44745 ft 565 kts 76°
2026-04-17 08:29 41.54300 120.54288 44640 ft 570 kts 86°
2026-04-17 08:29 41.54550 120.59575 44130 ft 573 kts 85°
2026-04-17 08:29 41.54822 120.64897 43653 ft 571 kts 85°
2026-04-17 08:29 41.55095 120.70164 43171 ft 568 kts 85°
2026-04-17 08:30 41.55365 120.75387 42695 ft 567 kts 85°
2026-04-17 08:30 41.55632 120.80577 42219 ft 566 kts 85°
2026-04-17 08:30 41.55900 120.85839 41648 ft 564 kts 85°
2026-04-17 08:30 41.56162 120.91039 41124 ft 564 kts 85°
2026-04-17 08:31 41.56423 120.96250 40423 ft 563 kts 85°
2026-04-17 08:31 41.56678 121.01402 39824 ft 561 kts 85°
2026-04-17 08:31 41.56933 121.06590 39266 ft 561 kts 85°
2026-04-17 08:31 41.57184 121.11762 38697 ft 560 kts 85°
2026-04-17 08:32 41.57436 121.16978 38080 ft 560 kts 85°
2026-04-17 08:32 41.57618 121.22126 37552 ft 560 kts 86°
2026-04-17 08:32 41.57764 121.27293 36954 ft 558 kts 86°
2026-04-17 08:33 41.58060 121.37611 36927 ft 558 kts 86°
2026-04-17 08:33 41.58347 121.47967 36328 ft 565 kts 86°
2026-04-17 08:33 41.58490 121.53243 35857 ft 564 kts 86°
2026-04-17 08:34 41.58629 121.58488 35331 ft 562 kts 86°
2026-04-17 08:34 41.58766 121.63673 34772 ft 561 kts 86°
2026-04-17 08:34 41.58900 121.68881 34190 ft 562 kts 87°
2026-04-17 08:34 41.59029 121.74023 33608 ft 560 kts 87°
2026-04-17 08:35 41.59231 121.82203 32659 ft 561 kts 86°
2026-04-17 08:35 41.59476 121.92387 31472 ft 564 kts 86°
2026-04-17 08:35 41.59714 122.02844 30251 ft 566 kts 86°
2026-04-17 08:35 41.59842 122.15060 28730 ft 567 kts 91°
2026-04-17 08:36 41.58964 122.21230 28023 ft 553 kts 102°
2026-04-17 08:36 41.58244 122.26204 27657 ft 545 kts 98°
2026-04-17 08:36 41.57636 122.31206 27648 ft 542 kts 97°
2026-04-17 08:37 41.56627 122.40055 27651 ft 520 kts 97°
2026-04-17 08:37 41.56095 122.44763 27475 ft 519 kts 97°
2026-04-17 08:37 41.55561 122.49497 26978 ft 519 kts 97°
2026-04-17 08:37 41.55023 122.54231 26494 ft 516 kts 97°
2026-04-17 08:38 41.54488 122.58926 26006 ft 516 kts 97°
2026-04-17 08:38 41.53946 122.63665 25523 ft 515 kts 97°
2026-04-17 08:38 41.53404 122.68399 24938 ft 516 kts 97°
2026-04-17 08:38 41.52863 122.73080 24349 ft 518 kts 97°
2026-04-17 08:39 41.52318 122.77802 23760 ft 517 kts 97°
2026-04-17 08:39 41.51769 122.82529 23171 ft 517 kts 97°
2026-04-17 08:39 41.51214 122.87297 22680 ft 517 kts 97°
2026-04-17 08:39 41.50664 122.92002 22670 ft 519 kts 97°
2026-04-17 08:40 41.50107 122.96743 22556 ft 523 kts 97°
2026-04-17 08:40 41.49544 123.01524 22059 ft 522 kts 97°
2026-04-17 08:40 41.48980 123.06290 21552 ft 522 kts 97°
2026-04-17 08:40 41.48415 123.11015 21247 ft 522 kts 97°
2026-04-17 08:41 41.47841 123.15781 21208 ft 521 kts 97°
2026-04-17 08:41 41.47317 123.20541 21340 ft 524 kts 92°
2026-04-17 08:41 41.47544 123.25208 21055 ft 494 kts 75°
2026-04-17 08:41 41.48422 123.29524 20395 ft 474 kts 70°
2026-04-17 08:42 41.49316 123.33678 19783 ft 459 kts 70°
2026-04-17 08:42 41.50176 123.37711 19689 ft 452 kts 69°
2026-04-17 08:42 41.51244 123.41592 19683 ft 445 kts 58°
2026-04-17 08:42 41.52725 123.45264 19603 ft 447 kts 56°
2026-04-17 08:43 41.54209 123.48893 18994 ft 445 kts 56°
2026-04-17 08:43 41.55654 123.52449 18400 ft 432 kts 56°
2026-04-17 08:43 41.57087 123.55843 17799 ft 415 kts 50°
2026-04-17 08:43 41.58882 123.58765 17210 ft 398 kts 42°
2026-04-17 08:44 41.60683 123.61490 16677 ft 388 kts 42°
2026-04-17 08:44 41.62416 123.64123 16575 ft 367 kts 42°
2026-04-17 08:44 41.64064 123.66624 16070 ft 360 kts 42°
2026-04-17 08:44 41.65715 123.69106 15554 ft 353 kts 42°
2026-04-17 08:45 41.67335 123.71542 14941 ft 351 kts 41°
2026-04-17 08:45 41.68924 123.73949 14333 ft 348 kts 42°
2026-04-17 08:45 41.70731 123.75944 13597 ft 317 kts 19°
2026-04-17 08:45 41.72656 123.76461 12938 ft 264 kts 348°
2026-04-17 08:46 41.74324 123.75892 11796 ft 246 kts 332°
2026-04-17 08:46 41.75776 123.74859 10845 ft 226 kts 325°
2026-04-17 08:46 41.76951 123.73852 10870 ft 180 kts 322°
2026-04-17 08:46 41.77901 123.72952 10194 ft 166 kts 319°
2026-04-17 08:47 41.78539 123.71806 9160 ft 163 kts 282°
2026-04-17 08:47 41.78263 123.70358 8110 ft 175 kts 243°
2026-04-17 08:47 41.77571 123.69069 7155 ft 173 kts 241°
2026-04-17 08:47 41.76886 123.67823 6235 ft 171 kts 237°
2026-04-17 08:48 41.76118 123.66651 5348 ft 167 kts 233°
2026-04-17 08:48 41.75369 123.65532 4453 ft 163 kts 232°
2026-04-17 08:48 41.74646 123.64432 3574 ft 160 kts 231°
2026-04-17 08:48 41.73941 123.63353 2882 ft 152 kts 229°
2026-04-17 08:49 41.73286 123.62363 2737 ft 133 kts 229°
2026-04-17 08:49 41.72713 123.61501 2570 ft 120 kts 229°
2026-04-17 08:49 41.72161 123.60671 2377 ft 115 kts 230°
2026-04-17 08:49 41.71644 123.59883 2196 ft 114 kts 229°
2026-04-17 08:50 41.71135 123.59111 2031 ft 109 kts 229°
2026-04-17 08:50 41.70626 123.58341 1882 ft 110 kts 229°
2026-04-17 08:50 41.70126 123.57584 1729 ft 110 kts 229°
2026-04-17 08:50 41.69623 123.56824 1585 ft 107 kts 228°
2026-04-17 08:51 41.69130 123.56078 1442 ft 107 kts 228°
2026-04-17 08:51 41.68629 123.55321 1291 ft 109 kts 229°
2026-04-17 08:51 41.68128 123.54565 1150 ft 107 kts 228°
2026-04-17 08:51 41.67619 123.53796 1002 ft 111 kts 229°
2026-04-17 08:52 41.67101 123.53014 856 ft 114 kts 229°
2026-04-17 08:52 41.66583 123.52234 713 ft 109 kts 230°
2026-04-17 08:52 41.66058 123.51447 549 ft 116 kts 230°
2026-04-17 08:52 41.65526 123.50663 383 ft 114 kts 231°
2026-04-17 08:53 41.65025 123.49895 268 ft 111 kts 232°
2026-04-17 08:53 41.64580 123.49207 206 ft 71 kts 229°
2026-04-17 08:53 41.64306 123.48799 206 ft 43 kts 231°
2026-04-17 08:53 41.64095 123.48469 206 ft 37 kts 229°
2026-04-17 08:54 41.63927 123.48472 206 ft 17 kts 138°
2026-04-17 08:54 41.63869 123.48541 206 ft 10 kts 140°
2026-04-17 08:54 41.63853 123.48619 206 ft 12 kts 66°
2026-04-17 08:54 41.63915 123.48725 206 ft 13 kts 49°
2026-04-17 08:55 41.63952 123.48789 206 ft 5 kts 74°
2026-04-17 08:55 41.63940 123.48834 206 ft 5 kts 135°
2026-04-17 08:55 41.63911 123.48869 206 ft 5 kts 139°
2026-04-17 08:55 41.63896 123.48887 206 ft 1 kts 139°
2026-04-17 08:56 41.63894 123.48889 206 ft 0 kts 139°
2026-04-17 08:57 41.64108 123.48586 206 ft 0 kts 139°
2026-04-17 08:57 41.63895 123.48891 206 ft 0 kts 139°
2026-04-17 08:57 41.63895 123.48887 206 ft 0 kts 139°
2026-04-17 09:04 41.64122 123.48566 206 ft 0 kts 139°
2026-04-17 09:04 41.64135 123.48549 206 ft 0 kts 139°
2026-04-17 09:04 41.63887 123.48896 206 ft 1 kts 139°